Weather History for Queen Alia, Jordan

Change the Weather History Date:

Thursday, January 17, 2013

  Actual Average Record
Temperature  
Mean Temperature 52 °F -  
Max Temperature 66 °F 55 °F 66 °F (2013)
Min Temperature 37 °F 36 °F 23 °F (2008)
Degree Days  
Heating Degree Days 14    
Growing Degree Days 2 (Base 50)    
Moisture  
Dew Point 30 °F    
Average Humidity 46    
Maximum Humidity 62    
Minimum Humidity 13    
Precipitation  
Precipitation 0.00 in - - ()
Sea Level Pressure  
Sea Level Pressure 30.09 in    
Wind  
Wind Speed 6 mph ()    
Max Wind Speed 12 mph    
Max Gust Speed -    
Visibility 4.9 miles    
Events      
Averages and records for this station are not official NWS values.
T = Trace of Precipitation, MM = Missing Value Source: Averaged Metar Reports

Daily Weather History Graph

Daily Weather History Graph

Search for Another Location

Airport:

Trip Planner

Search our weather history database for the weather conditions in past years. The results will help you decide how hot, cold, wet, or windy it might be!

Date:

Astronomy

Jan. 17, 2013 Rise Set
Actual Time 7:35 AM EEST 5:56 PM EEST
Civil Twilight 7:09 AM EEST 6:22 PM EEST
Nautical Twilight 6:39 AM EEST 6:52 PM EEST
Astronomical Twilight 6:10 AM EEST 7:22 PM EEST
Moon 10:57 AM EEST (1/17) 11:59 PM EEST (1/17)
Length of Visible Light 11h 13m
Length of Day
10h 20m
Waxing Crescent, 34% of the Moon is Illuminated
Jan 17
Waxing Crescent
Jan 19
First Quarter
Jan 27
Full
Feb 3
Last Quarter
Feb 10
New

Hourly Weather History & Observations

Time (EEST) Temp. Windchill Dew Point Humidity Pressure Visibility Wind Dir Wind Speed Gust Speed Precip Events Conditions
12:00 AM 47 °F - 28 °F 35% 30.15 in 6 mi SE 6.9 mph - -   Clear
12:00 AM 48.2 °F - 28.4 °F 46% 30.15 in - SE 6.9 mph - N/A   Clear
1:00 AM 44.6 °F 40.7 °F 28.4 °F 53% 30.12 in - East 6.9 mph - N/A   Clear
2:00 AM 44.6 °F 40.7 °F 28.4 °F 53% 30.12 in - ENE 6.9 mph - N/A   Clear
3:00 AM 44 °F - 28 °F 42% 30.11 in 6 mi East 9.2 mph - -   Clear
3:00 AM 44.6 °F 39.7 °F 28.4 °F 53% 30.09 in - East 9.2 mph - N/A   Clear
4:00 AM 42.8 °F 37.5 °F 28.4 °F 57% 30.09 in - ENE 9.2 mph - N/A   Clear
5:00 AM 41.0 °F 36.4 °F 28.4 °F 61% 30.09 in - ENE 6.9 mph - N/A   Clear
6:00 AM 41 °F - 28 °F 48% 30.10 in 6 mi NE 6.9 mph - -   Clear
6:00 AM 41.0 °F 36.4 °F 28.4 °F 61% 30.09 in - NE 6.9 mph - N/A   Clear
7:00 AM 41.0 °F 38.0 °F 26.6 °F 57% 30.09 in - ENE 4.6 mph - N/A   Clear
8:00 AM 41.0 °F 35.2 °F 26.6 °F 57% 30.09 in 5.0 mi NE 9.2 mph - N/A   Unknown
9:00 AM 42 °F - 28 °F 46% 30.11 in 5 mi ENE 9.2 mph - -   Haze
9:00 AM 41.0 °F 35.2 °F 28.4 °F 61% 30.09 in 5.0 mi ENE 9.2 mph - N/A   Unknown
10:00 AM 42.8 °F 38.6 °F 28.4 °F 57% 30.09 in 4.3 mi ENE 6.9 mph - N/A   Unknown
11:00 AM 50.0 °F - 33.8 °F 54% 30.12 in 4.3 mi Calm Calm - N/A   Unknown
12:00 PM 56 °F - 35 °F 33% 30.10 in 4 mi Calm Calm - -   Haze
12:00 PM 55.4 °F - 35.6 °F 47% 30.09 in 3.7 mi Calm Calm - N/A   Unknown
1:00 PM 60.8 °F - 32.0 °F 34% 30.09 in 3.7 mi Calm Calm - N/A   Unknown
2:00 PM 62.6 °F - 30.2 °F 30% 30.06 in 4.3 mi Calm Calm - N/A   Unknown
3:00 PM 65 °F - 27 °F 13% 30.04 in 4 mi WNW 8.1 mph - -   Haze
3:00 PM 66.2 °F - 26.6 °F 23% 30.06 in 4.3 mi WNW 8.1 mph - N/A   Unknown
4:00 PM 64.4 °F - 19.4 °F 18% 30.06 in - WNW 11.5 mph - N/A   Clear
5:00 PM 62.6 °F - 24.8 °F 24% 30.06 in - WNW 5.8 mph - N/A   Clear
6:00 PM 50 °F - 33 °F 40% 30.10 in 6 mi NNW 5.8 mph - -  
6:00 PM 50.0 °F - 33.8 °F 54% 30.06 in - NNW 5.8 mph - N/A   Clear
7:00 PM 50.0 °F - 32.0 °F 50% 30.06 in - NW 8.1 mph - N/A   Clear
8:00 PM 50.0 °F - 32.0 °F 50% 30.09 in - Calm Calm - N/A   Clear
9:00 PM 47 °F - 32 °F 44% 30.12 in 6 mi NNE 5.8 mph - -  
9:00 PM 48.2 °F - 32.0 °F 54% 30.09 in - NNE 5.8 mph - N/A   Clear
10:00 PM 46.4 °F 43.5 °F 33.8 °F 62% 30.06 in - North 5.8 mph - N/A   Clear
11:00 PM 44.6 °F - 30.2 °F 57% 30.06 in - Calm Calm - N/A   Clear